Weather in Pristen

Russia / Kursk Oblast     51°14′10″N   36°41′47″E
temp.,
°C
wind,
m/s
gust,
m/s
humid.,
%
clouds,
%
prec.,
mm/h
press.,
hPa
HPBL,
m
25 february, thu
thu2500:00−9ssw41095100 0.4 1033288
03:00−7ssw4895100 0.6 1031250
06:00−7sw4895100 0.1 1029244
09:00−3wsw51096100 0.2 1028405
12:000wsw610100100 0.0 1026344
15:00+1wsw713100100 0.1 1023364
18:00+2w61399100 0.0 1022301
21:00+2w511100100 0.1 1022266
26 february, fri
fri2600:00+2w512100100 0.0 1022286
03:00+1w51099100 0.1 1022212
06:00+1w41099100 0.0 1021223
09:00+2w51099100 0.0 1020264
12:00+2wsw713100100 0.0 1018417
15:00+2w71498100 0.1 1017465
18:00+2w61398100 0.1 1015369
21:00+2w61398100 0.2 1015384
27 february, sat
sat2700:00+1w51296100 0.0 1013408
03:00+1w51196100 0.0 1012409
06:00+1w51196100 0.0 1010393
09:00+1wnw51095100 0.1 1009592
12:000wnw51198100 0.2 1009561
15:00+1wnw61098100 0.3 1009586
18:00+1wnw61197100 0.1 1008515
21:000nw61197100 0.4 1009594
28 february, sun
sun2800:000nw61194100 0.2 1010671
03:00−2n7128899 0.4 1013700
06:00−5n6108886 0.0 1015738
09:00−5n698593 0.1 1017769
12:00−4n6883100 0.1 1019771
15:00−4nnw6885100 0.1 1020749
18:00−4nnw5887100 0.1 1021745
21:00−4n4890100 0.1 1023725
1 march, mon
mon100:00−4n3795100 0.1 1024496
03:00−5n259398 0.2 1026362
06:00−6nnw3594100 0.0 1027158
09:00−5nne369098 0.1 1029692
12:00−4n4683100 0.1 1031731
15:00−3n3582100 0.1 1031663
18:00−4wnw228954 0.0 103129
21:00−5w349027 0.0 103272